DW1234 Weather Reports


time (UTC)temp
F
wind
direction
speed
knots
gust
knots
rain 1hr
in
rain 24hr
in
rain mn
in
humidity
%
barometer
mb
20260903121738 80 172 6.1 10.4 0.00 0.01 0.01 70 1011.7
20260903121528 79 178 4.3 7.8 0.00 0.01 0.01 70 1008.7
20260903121252 80 169 4.3 7.8 0.00 0.01 0.01 70 1011.6
20260903120734 80 163 4.3 7.0 0.00 0.01 0.01 70 1011.6
20260903120244 79 198 3.5 8.7 0.00 0.01 0.01 70 1011.6
20260903120031 79 225 3.5 9.6 0.00 0.01 0.01 70 1008.6
20260903115725 79 176 5.2 9.6 0.00 0.01 0.01 70 1011.6
20260903115236 79 194 5.2 9.6 0.00 0.01 0.01 71 1011.5
20260903114746 79 178 4.3 10.4 0.00 0.01 0.01 71 1011.4
20260903114539 79 202 6.1 10.4 0.00 0.01 0.01 71 1008.5
20260903114227 79 182 6.1 10.4 0.00 0.01 0.01 71 1011.4
20260903113736 79 186 5.2 9.6 0.00 0.01 0.01 72 1011.4
20260903113247 79 202 6.1 8.7 0.00 0.01 0.01 72 1011.3
20260903113050 78 146 5.2 10.4 0.00 0.01 0.01 72 1008.4
20260903112730 79 186 6.1 9.6 0.00 0.01 0.01 72 1011.3
20260903112241 78 164 7.0 15.6 0.00 0.01 0.01 73 1011.2
20260903111725 78 167 9.6 15.6 0.00 0.01 0.01 73 1011.2
20260903111546 78 159 9.6 15.6 0.00 0.01 0.01 73 1008.2
20260903111257 78 173 7.8 13.0 0.01 0.01 0.01 74 1011.2
20260903110743 78 198 7.0 13.0 0.01 0.01 0.01 74 1011.2
20260903110226 78 198 6.1 13.9 0.01 0.01 0.01 74 1011.2
20260903110021 77 186 6.1 13.9 0.01 0.01 0.01 74 1008.3
20260903105756 78 181 7.8 13.9 0.01 0.01 0.01 75 1011.3
20260903105245 78 202 5.2 9.6 0.01 0.01 0.01 75 1011.4
20260903104727 78 187 5.2 8.7 0.01 0.01 0.01 75 1011.5
20260903104615 77 192 4.3 8.7 0.01 0.01 0.01 75 1008.5
20260903104300 78 165 5.2 8.7 0.01 0.01 0.01 75 1011.4
20260903103749 78 174 5.2 8.7 0.01 0.01 0.01 74 1011.4
20260903103227 78 190 4.3 7.8 0.01 0.01 0.01 75 1011.4
20260903103042 78 187 4.3 7.8 0.01 0.01 0.01 75 1008.5
20260903102737 78 156 6.1 8.7 0.01 0.01 0.01 74 1011.4
20260903102249 78 191 4.3 8.7 0.01 0.01 0.01 74 1011.4
20260903101739 78 198 4.3 7.0 0.01 0.01 0.01 74 1011.3
20260903101520 78 162 5.2 7.8 0.01 0.01 0.01 74 1008.5
20260903101251 78 171 5.2 7.8 0.00 0.00 0.00 73 1011.4
20260903100732 78 170 6.1 9.6 0.00 0.00 0.00 73 1011.3
20260903100243 78 167 7.0 9.6 0.00 0.00 0.00 73 1011.1
20260903100056 78 172 7.8 9.6 0.00 0.00 0.00 73 1008.3
20260903095749 78 175 7.8 9.6 0.00 0.00 0.00 73 1011.1
20260903095230 78 155 7.0 9.6 0.00 0.00 0.00 72 1011.2
20260903094742 78 166 7.8 13.0 0.00 0.00 0.00 73 1011.2
20260903094604 78 175 7.0 13.0 0.00 0.00 0.00 73 1008.3
20260903094227 79 166 8.7 13.0 0.00 0.00 0.00 72 1011.2
20260903093739 79 184 7.8 9.6 0.00 0.00 0.00 73 1011.2
20260903093222 79 159 7.0 9.6 0.00 0.00 0.00 72 1011.3
20260903093049 78 165 7.0 9.6 0.00 0.00 0.00 72 1008.4
20260903092734 79 180 7.0 9.6 0.00 0.00 0.00 72 1011.3
20260903092245 79 150 7.0 9.6 0.00 0.00 0.00 72 1011.3
20260903091724 79 167 7.8 8.7 0.00 0.00 0.00 72 1011.3
20260903091613 79 162 7.0 10.4 0.00 0.00 0.00 72 1008.4
20260903091236 79 173 7.8 12.2 0.00 0.00 0.00 72 1011.3
20260903090745 79 170 7.8 12.2 0.00 0.00 0.00 72 1011.3
20260903090228 79 171 7.8 13.0 0.00 0.00 0.00 71 1011.3
20260903090058 79 182 7.8 13.0 0.00 0.00 0.00 71 1008.4
20260903085740 79 200 7.0 10.4 0.00 0.00 0.00 70 1011.3
20260903085223 79 166 7.0 8.7 0.00 0.00 0.00 70 1011.3
20260903084759 79 203 7.0 10.4 0.00 0.00 0.00 70 1011.3
20260903084543 79 159 7.0 10.4 0.00 0.00 0.00 70 1008.5
20260903084249 79 190 7.8 10.4 0.00 0.00 0.00 70 1011.3
20260903083800 79 183 7.0 11.3 0.00 0.00 0.00 70 1011.3
20260903083247 79 178 7.0 10.4 0.00 0.00 0.00 70 1011.3
20260903083014 79 172 7.8 10.4 0.00 0.00 0.00 70 1008.5
20260903082805 79 158 7.0 12.2 0.00 0.00 0.00 70 1011.3
20260903082319 79 173 7.0 12.2 0.00 0.00 0.00 70 1011.3
20260903081741 79 175 7.8 13.9 0.00 0.00 0.00 70 1011.3
20260903081508 79 186 7.0 13.9 0.00 0.00 0.00 70 1008.4
20260903081225 79 167 7.8 13.9 0.00 0.00 0.00 70 1011.2
20260903080736 79 188 7.0 10.4 0.00 0.00 0.00 70 1011.3
20260903080247 79 180 7.0 9.6 0.00 0.00 0.00 70 1011.3
20260903080014 79 163 6.1 9.6 0.00 0.00 0.00 70 1008.4
20260903075731 80 171 7.0 8.7 0.00 0.00 0.00 70 1011.3
20260903075302 80 173 6.1 10.4 0.00 0.00 0.00 70 1011.3
20260903074727 80 178 7.0 12.2 0.00 0.00 0.00 69 1011.3
20260903074551 79 184 7.0 12.2 0.00 0.00 0.00 70 1008.4
20260903074239 80 174 7.0 12.2 0.00 0.00 0.00 70 1011.3
20260903073745 80 165 7.0 10.4 0.00 0.00 0.00 70 1011.3
20260903073232 80 180 7.8 12.2 0.00 0.00 0.00 70 1011.3
20260903073032 79 176 7.0 12.2 0.00 0.00 0.00 69 1008.4
20260903072744 80 151 7.0 8.7 0.00 0.00 0.00 69 1011.2
20260903072227 80 196 7.0 10.4 0.00 0.00 0.00 69 1011.2
20260903071738 80 159 7.0 10.4 0.00 0.00 0.00 69 1011.3
20260903071536 80 188 7.0 10.4 0.00 0.00 0.00 69 1008.4
20260903071250 80 171 7.0 10.4 0.00 0.00 0.00 69 1011.3
20260903070730 80 188 7.0 10.4 0.00 0.00 0.00 69 1011.3
20260903070257 80 182 7.0 10.4 0.00 0.00 0.00 68 1011.2
20260903070013 80 185 7.0 9.6 0.00 0.00 0.00 68 1008.4
20260903065746 80 180 7.0 9.6 0.00 0.00 0.00 68 1011.3
20260903065228 81 179 7.0 12.2 0.00 0.00 0.00 68 1011.4
20260903064738 81 169 7.8 10.4 0.00 0.00 0.00 68 1011.4
20260903064522 80 178 7.0 10.4 0.00 0.00 0.00 68 1008.5
20260903064223 81 175 7.0 10.4 0.00 0.00 0.00 68 1011.4
20260903063733 81 186 7.0 10.4 0.00 0.00 0.00 68 1011.4
20260903063244 81 175 7.8 13.0 0.00 0.00 0.00 68 1011.3
20260903063026 81 155 7.0 13.0 0.00 0.00 0.00 67 1008.5
20260903062726 81 161 7.0 13.0 0.00 0.00 0.00 67 1011.3
20260903062233 81 198 7.8 11.3 0.00 0.00 0.00 67 1011.3
20260903061746 81 172 7.0 11.3 0.00 0.00 0.00 67 1011.3
20260903061505 81 174 7.0 11.3 0.00 0.00 0.00 67 1008.5
20260903061237 81 167 7.8 11.3 0.00 0.00 0.00 67 1011.4
20260903060747 81 159 7.8 11.3 0.00 0.00 0.00 67 1011.3
20260903060229 81 144 8.7 13.9 0.00 0.00 0.00 67 1011.4
20260903060013 81 143 7.8 13.9 0.00 0.00 0.00 67 1008.5
20260903055740 81 150 7.0 13.9 0.00 0.00 0.00 67 1011.4
20260903055222 82 151 7.8 10.4 0.00 0.00 0.00 67 1011.4
20260903054729 82 171 7.8 11.3 0.00 0.00 0.00 67 1011.4
20260903054511 81 178 7.8 11.3 0.00 0.00 0.00 67 1008.6
20260903054242 82 171 7.0 12.2 0.00 0.00 0.00 67 1011.3
20260903053723 82 162 7.0 12.2 0.00 0.00 0.00 67 1011.3
20260903053236 82 175 7.8 12.2 0.00 0.00 0.00 66 1011.4
20260903053028 81 160 7.0 13.0 0.00 0.00 0.00 66 1008.5
20260903052746 82 170 7.0 10.4 0.00 0.00 0.00 66 1011.4
20260903052229 82 140 7.0 10.4 0.00 0.00 0.00 66 1011.4
20260903051741 82 158 7.8 10.4 0.00 0.00 0.00 65 1011.4
20260903051519 82 202 7.0 10.4 0.00 0.00 0.00 65 1008.5
20260903051254 82 156 7.0 10.4 0.00 0.00 0.00 65 1011.4
20260903050734 83 169 8.7 12.2 0.00 0.00 0.00 65 1011.3
20260903050243 83 157 8.7 12.2 0.00 0.00 0.00 64 1011.4
20260903050100 82 137 6.1 10.4 0.00 0.00 0.00 64 1008.5
20260903045747 83 165 7.0 11.3 0.00 0.00 0.00 64 1011.4
20260903045231 83 158 7.8 11.3 0.00 0.00 0.00 63 1011.4
20260903044741 83 155 7.8 12.2 0.00 0.00 0.00 63 1011.4
20260903044604 83 163 7.0 12.2 0.00 0.00 0.00 63 1008.6
20260903044255 83 144 8.7 12.2 0.00 0.00 0.00 63 1011.4
20260903043745 83 147 8.7 13.9 0.00 0.00 0.00 63 1011.4
20260903043224 83 148 10.4 16.5 0.00 0.00 0.00 62 1011.3
20260903043038 83 158 8.7 16.5 0.00 0.00 0.00 63 1008.5
20260903042736 83 156 9.6 16.5 0.00 0.00 0.00 63 1011.3
20260903042247 83 157 8.7 14.8 0.00 0.00 0.00 62 1011.3
20260903041729 84 184 9.6 13.9 0.00 0.00 0.00 62 1011.2
20260903041553 83 169 9.6 14.8 0.00 0.00 0.00 62 1008.4
20260903041243 84 164 9.6 15.6 0.00 0.00 0.00 62 1011.3
20260903040724 84 178 8.7 16.5 0.00 0.00 0.00 62 1011.3
20260903040236 84 175 10.4 16.5 0.00 0.00 0.00 62 1011.3
20260903040053 83 200 10.4 14.8 0.00 0.00 0.00 62 1008.5
20260903035721 84 157 9.6 16.5 0.00 0.00 0.00 62 1011.3
20260903035251 84 146 9.6 14.8 0.00 0.00 0.00 63 1011.3
20260903034742 84 169 9.6 14.8 0.00 0.00 0.00 63 1011.3
20260903034534 83 150 9.6 15.6 0.00 0.00 0.00 63 1008.4
20260903034225 84 136 8.7 15.6 0.00 0.00 0.00 63 1011.3
20260903033736 84 175 9.6 15.6 0.00 0.00 0.00 63 1011.3
20260903033246 83 152 8.7 18.2 0.00 0.00 0.00 63 1011.3
20260903033034 83 163 9.6 18.2 0.00 0.00 0.00 63 1008.4
20260903032729 83 176 9.6 18.2 0.00 0.00 0.00 63 1011.3
20260903032239 84 165 8.7 13.0 0.00 0.00 0.00 63 1011.3
20260903031724 84 184 8.7 13.0 0.00 0.00 0.00 63 1011.3
20260903031538 83 149 7.8 13.0 0.00 0.00 0.00 63 1008.4
20260903031233 84 169 7.8 13.0 0.00 0.00 0.00 63 1011.3
20260903030743 84 160 8.7 13.9 0.00 0.00 0.00 63 1011.3
20260903030225 84 168 8.7 13.9 0.00 0.00 0.00 63 1011.3
20260903030038 83 167 8.7 13.9 0.00 0.00 0.00 63 1008.5
20260903025737 84 147 7.8 13.0 0.00 0.00 0.00 63 1011.3
20260903025222 84 159 9.6 13.0 0.00 0.00 0.00 63 1011.3
20260903024733 84 138 8.7 13.0 0.00 0.00 0.00 63 1011.2
20260903024542 84 160 8.7 13.0 0.00 0.00 0.00 63 1008.4
20260903024247 84 173 8.7 13.0 0.00 0.00 0.00 62 1011.2
20260903023727 84 165 8.7 12.2 0.00 0.00 0.00 62 1011.2
20260903023235 85 161 8.7 12.2 0.00 0.00 0.00 62 1011.2
20260903023050 84 161 7.8 12.2 0.00 0.00 0.00 62 1008.3
20260903022809 85 176 8.7 13.0 0.00 0.00 0.00 62 1011.1
20260903022232 85 180 7.8 12.2 0.00 0.00 0.00 62 1011.1
20260903021745 85 166 7.8 12.2 0.00 0.00 0.00 62 1011.1
20260903021523 85 159 6.1 12.2 0.00 0.00 0.00 62 1008.2
20260903021229 85 173 6.1 12.2 0.00 0.00 0.00 62 1011.0
20260903020738 86 148 7.8 10.4 0.00 0.00 0.00 61 1010.9
20260903020223 86 171 7.0 9.6 0.00 0.00 0.00 61 1010.9
20260903020032 86 136 6.1 9.6 0.00 0.00 0.00 61 1008.0
20260903015729 86 153 6.1 9.6 0.00 0.00 0.00 61 1010.8
20260903015239 87 168 7.0 11.3 0.00 0.00 0.00 60 1010.8
20260903014750 87 138 7.0 11.3 0.00 0.00 0.00 60 1010.8
20260903014520 87 140 6.1 9.6 0.00 0.00 0.00 59 1007.9
20260903014302 87 155 6.1 10.4 0.00 0.00 0.00 59 1010.8
20260903013721 88 164 6.1 10.4 0.00 0.00 0.00 59 1010.8
20260903013233 88 171 7.0 12.2 0.00 0.00 0.00 58 1010.7
20260903013101 88 165 6.1 12.2 0.00 0.00 0.00 58 1007.8
20260903013002 88 151 6.1 12.2 0.00 0.00 0.00 58 1007.8
20260903012745 88 153 7.8 12.2 0.00 0.00 0.00 58 1010.7
20260903012233 89 139 7.0 12.2 0.00 0.00 0.00 57 1010.6
20260903011743 89 155 7.0 11.3 0.00 0.00 0.00 57 1010.6
20260903011546 89 166 6.1 11.3 0.00 0.00 0.00 57 1007.6
20260903011229 90 186 6.1 10.4 0.00 0.00 0.00 56 1010.5
20260903010737 90 172 7.0 10.4 0.00 0.00 0.00 56 1010.6
20260903010221 91 150 6.1 10.4 0.00 0.00 0.00 55 1010.6
20260903010046 91 145 7.0 10.4 0.00 0.00 0.00 55 1007.6
20260903005732 91 184 7.0 10.4 0.00 0.00 0.00 55 1010.6
20260903005244 92 168 6.1 8.7 0.00 0.00 0.00 54 1010.5
20260903004726 92 168 6.1 8.7 0.00 0.00 0.00 53 1010.6
20260903004546 92 142 5.2 8.7 0.00 0.00 0.00 53 1007.6
20260903004235 93 162 5.2 8.7 0.00 0.00 0.00 53 1010.6
20260903003746 94 150 6.1 10.4 0.00 0.00 0.00 52 1010.6
20260903003230 94 142 7.0 10.4 0.00 0.00 0.00 51 1010.6
20260903003050 94 143 7.0 10.4 0.00 0.00 0.00 51 1007.7
20260903002741 95 168 6.1 8.7 0.00 0.00 0.00 51 1010.7
20260903002225 95 178 6.1 8.7 0.00 0.00 0.00 51 1010.6
20260903001736 96 163 6.1 9.6 0.00 0.00 0.00 50 1010.6
20260903001550 95 174 5.2 7.8 0.00 0.00 0.00 50 1007.7
20260903001249 96 153 5.2 8.7 0.00 0.00 0.00 49 1010.7
20260903000731 96 168 6.1 8.7 0.00 0.00 0.00 49 1010.7
20260903000240 97 180 6.1 8.7 0.00 0.00 0.00 48 1010.7
20260903000040 96 186 5.2 8.7 0.00 0.00 0.00 48 1007.7
20260902235810 97 161 6.1 8.7 0.00 0.00 0.00 48 1010.7
20260902235233 97 201 4.3 7.8 0.00 0.00 0.00 48 1010.7
20260902234745 97 195 5.2 9.6 0.00 0.00 0.00 48 1010.7
20260902234521 97 198 4.3 9.6 0.00 0.00 0.00 48 1007.8
20260902234229 98 167 5.2 9.6 0.00 0.00 0.00 48 1010.7
20260902233759 98 197 5.2 8.7 0.00 0.00 0.00 48 1010.8
20260902233221 98 182 6.1 7.8 0.00 0.00 0.00 48 1010.7
20260902233006 97 174 5.2 7.8 0.00 0.00 0.00 48 1007.7
20260902232810 98 182 4.3 7.0 0.00 0.00 0.00 48 1010.7
20260902232231 98 198 3.5 8.7 0.00 0.00 0.00 49 1010.7
20260902231803 98 171 6.1 8.7 0.00 0.00 0.00 48 1010.7
20260902231526 98 201 4.3 10.4 0.00 0.00 0.00 47 1007.7
20260902231225 98 163 5.2 10.4 0.00 0.00 0.00 48 1010.6
20260902230733 98 200 7.0 10.4 0.00 0.00 0.00 47 1010.7
20260902230244 98 173 5.2 8.7 0.00 0.00 0.00 47 1010.7
20260902230026 98 200 5.2 8.7 0.00 0.00 0.00 48 1007.7
20260902225721 98 192 4.3 9.6 0.00 0.00 0.00 48 1010.7
20260902225233 99 221 5.2 11.3 0.00 0.00 0.00 48 1010.7
20260902224743 98 161 6.1 11.3 0.00 0.00 0.00 47 1010.7
20260902224528 98 189 5.2 9.6 0.00 0.00 0.00 48 1007.7
20260902224229 98 194 6.1 10.4 0.00 0.00 0.00 48 1010.8
20260902223739 98 167 6.1 13.0 0.00 0.00 0.00 47 1010.8
20260902223250 98 217 7.0 13.0 0.00 0.00 0.00 46 1010.7
20260902223006 98 204 7.0 13.9 0.00 0.00 0.00 46 1007.8
20260902222741 98 201 6.1 12.2 0.00 0.00 0.00 46 1010.8
20260902222224 98 198 7.0 13.9 0.00 0.00 0.00 46 1010.8
20260902221731 98 164 8.7 13.9 0.00 0.00 0.00 46 1010.8
20260902221547 97 218 6.1 13.9 0.00 0.00 0.00 47 1007.9
20260902221244 98 207 9.6 18.2 0.00 0.00 0.00 46 1010.8
20260902220724 98 189 11.3 18.2 0.00 0.00 0.00 45 1010.8
20260902220246 98 227 7.8 13.0 0.00 0.00 0.00 47 1010.8
20260902220041 98 211 9.6 13.9 0.00 0.00 0.00 45 1007.9
20260902215728 99 218 8.7 13.9 0.00 0.00 0.00 46 1010.9
20260902215238 99 178 10.4 16.5 0.00 0.00 0.00 45 1010.9
20260902214722 99 215 11.3 16.5 0.00 0.00 0.00 45 1010.9
20260902214537 99 204 9.6 16.5 0.00 0.00 0.00 45 1007.9
20260902214231 99 191 11.3 19.1 0.00 0.00 0.00 45 1010.8
20260902213741 100 204 11.3 16.5 0.00 0.00 0.00 44 1011.0
20260902213224 100 181 9.6 16.5 0.00 0.00 0.00 44 1010.9
20260902213041 100 180 9.6 17.4 0.00 0.00 0.00 44 1008.1
20260902212756 100 158 9.6 17.4 0.00 0.00 0.00 44 1011.0
20260902212247 100 210 11.3 17.4 0.00 0.00 0.00 44 1011.0
20260902211726 101 179 8.7 18.2 0.00 0.00 0.00 43 1011.0
20260902211523 100 170 9.6 15.6 0.00 0.00 0.00 45 1008.0
20260902211255 101 206 10.4 14.8 0.00 0.00 0.00 45 1011.1
20260902210743 100 164 7.8 13.9 0.00 0.00 0.00 46 1011.0
20260902210227 100 159 8.7 15.6 0.00 0.00 0.00 45 1011.1
20260902210115 100 181 8.7 15.6 0.00 0.00 0.00 45 1008.2
20260902205738 100 159 9.6 15.6 0.00 0.00 0.00 46 1011.2
20260902205249 100 196 7.0 14.8 0.00 0.00 0.00 47 1011.2
20260902204731 99 212 9.6 16.5 0.00 0.00 0.00 48 1011.3
20260902204547 99 180 7.0 16.5 0.00 0.00 0.00 47 1008.3
20260902204304 99 174 9.6 16.5 0.00 0.00 0.00 46 1011.3
20260902203727 99 205 7.8 14.8 0.00 0.00 0.00 47 1011.4
20260902203234 99 193 9.6 18.2 0.00 0.00 0.00 44 1011.3
20260902203037 98 212 9.6 18.2 0.00 0.00 0.00 45 1008.4
20260902202745 99 213 13.0 18.2 0.00 0.00 0.00 43 1011.3
20260902202227 99 203 12.2 17.4 0.00 0.00 0.00 43 1011.4
20260902201739 99 195 10.4 15.6 0.00 0.00 0.00 44 1011.5
20260902201550 99 163 9.6 13.9 0.00 0.00 0.00 44 1008.5
20260902201251 99 190 9.6 15.6 0.00 0.00 0.00 47 1011.5
20260902200731 98 178 8.7 19.1 0.00 0.00 0.00 46 1011.5
20260902200242 98 225 7.8 19.1 0.00 0.00 0.00 46 1011.6
20260902200025 98 190 11.3 19.1 0.00 0.00 0.00 45 1008.6
20260902195728 98 196 10.4 18.2 0.00 0.00 0.00 44 1011.6
20260902195239 98 213 12.2 18.2 0.00 0.00 0.00 44 1011.7
20260902194809 98 177 10.4 18.2 0.00 0.00 0.00 46 1011.7
20260902194557 97 179 10.4 18.2 0.00 0.00 0.00 45 1008.7
20260902194233 97 214 10.4 18.2 0.00 0.00 0.00 47 1011.7
20260902193743 97 188 11.3 18.2 0.00 0.00 0.00 47 1011.7
20260902193226 96 174 10.4 14.8 0.00 0.00 0.00 51 1011.8
20260902193055 96 219 8.7 13.0 0.00 0.00 0.00 50 1008.8
20260902192756 96 211 7.8 15.6 0.00 0.00 0.00 48 1011.9
20260902192243 96 185 7.8 15.6 0.00 0.00 0.00 49 1011.9
20260902191724 97 205 8.7 14.8 0.00 0.00 0.00 48 1011.9
20260902191544 96 175 7.0 12.2 0.00 0.00 0.00 49 1009.0
20260902191257 97 186 7.0 12.2 0.00 0.00 0.00 49 1011.9
20260902190747 96 192 8.7 14.8 0.00 0.00 0.00 48 1012.0
20260902190229 96 200 7.0 17.4 0.00 0.00 0.00 49 1012.0
20260902190015 96 202 9.6 17.4 0.00 0.00 0.00 48 1009.1
20260902185831 97 186 10.4 17.4 0.00 0.00 0.00 48 1012.1
20260902185321 97 211 7.0 15.6 0.00 0.00 0.00 48 1012.2
20260902184746 97 196 10.4 15.6 0.00 0.00 0.00 46 1012.2
20260902184509 96 211 10.4 16.5 0.00 0.00 0.00 47 1009.2
20260902184236 97 161 10.4 16.5 0.00 0.00 0.00 47 1012.2
20260902183745 97 171 9.6 16.5 0.00 0.00 0.00 48 1012.3
20260902183230 97 200 10.4 19.1 0.00 0.00 0.00 49 1012.3
20260902183017 96 182 11.3 19.1 0.00 0.00 0.00 47 1009.3
20260902182801 97 204 12.2 19.1 0.00 0.00 0.00 47 1012.3
20260902182307 97 191 10.4 16.5 0.00 0.00 0.00 48 1012.3
20260902181728 96 217 9.6 19.1 0.00 0.00 0.00 48 1012.4
20260902181540 96 211 10.4 19.1 0.00 0.00 0.00 45 1009.4
20260902181241 97 202 13.0 19.1 0.00 0.00 0.00 45 1012.4
20260902180722 96 157 12.2 18.2 0.00 0.00 0.00 46 1012.4
20260902180234 96 202 10.4 18.2 0.00 0.00 0.00 48 1012.4
20260902180030 95 189 11.3 18.2 0.00 0.00 0.00 49 1009.4
20260902175745 95 207 8.7 16.5 0.00 0.00 0.00 50 1012.5
20260902175226 95 200 10.4 19.1 0.00 0.00 0.00 48 1012.5
20260902174733 94 215 13.0 19.1 0.00 0.00 0.00 48 1012.5
20260902174536 93 211 11.3 20.9 0.00 0.00 0.00 50 1009.7
20260902174246 94 194 11.3 15.6 0.00 0.00 0.00 49 1012.7
20260902173727 94 209 7.8 13.9 0.00 0.00 0.00 52 1012.7
20260902173238 94 178 8.7 17.4 0.00 0.00 0.00 50 1012.8
20260902173035 94 204 9.6 17.4 0.00 0.00 0.00 50 1009.9
20260902172749 94 186 9.6 17.4 0.00 0.00 0.00 50 1012.8
20260902172232 95 198 8.7 15.6 0.00 0.00 0.00 49 1012.8
20260902171744 94 173 8.7 13.0 0.00 0.00 0.00 51 1013.0
20260902171519 94 184 7.8 13.0 0.00 0.00 0.00 51 1010.1
20260902171234 94 202 7.0 13.0 0.00 0.00 0.00 51 1013.0
20260902170737 94 186 7.0 14.8 0.00 0.00 0.00 50 1013.0
20260902170248 94 186 10.4 15.6 0.00 0.00 0.00 51 1012.9
20260902170013 93 173 9.6 15.6 0.00 0.00 0.00 51 1010.0
20260902165732 93 214 8.7 15.6 0.00 0.00 0.00 50 1012.9
20260902165308 93 171 10.4 13.9 0.00 0.00 0.00 53 1012.9
20260902164722 93 172 8.7 13.9 0.00 0.00 0.00 52 1012.9
20260902164551 92 159 8.7 13.9 0.00 0.00 0.00 54 1010.1
20260902164236 93 212 9.6 15.6 0.00 0.00 0.00 54 1013.0
20260902163747 93 209 10.4 15.6 0.00 0.00 0.00 51 1013.0
20260902163225 93 198 9.6 13.9 0.00 0.00 0.00 53 1013.0
20260902163051 92 200 7.8 13.0 0.00 0.00 0.00 55 1010.2
20260902162735 92 146 8.7 13.9 0.00 0.00 0.00 52 1013.0
20260902162307 91 194 9.6 13.9 0.00 0.00 0.00 55 1013.0
20260902161727 91 173 7.8 14.8 0.00 0.00 0.00 57 1013.0
20260902161527 90 188 7.8 14.8 0.00 0.00 0.00 55 1010.2
20260902161240 90 215 7.8 13.9 0.00 0.00 0.00 58 1013.0
20260902160749 90 211 7.0 12.2 0.00 0.00 0.00 60 1013.1
20260902160232 89 150 7.8 10.4 0.00 0.00 0.00 60 1013.1
20260902160036 88 201 5.2 9.6 0.00 0.00 0.00 60 1010.2
20260902155738 89 200 7.8 9.6 0.00 0.00 0.00 60 1013.1
20260902155221 88 181 7.0 9.6 0.00 0.00 0.00 59 1013.2
20260902154731 89 181 6.1 11.3 0.00 0.00 0.00 58 1013.2
20260902154539 88 202 5.2 11.3 0.00 0.00 0.00 59 1010.4
20260902154244 89 153 6.1 11.3 0.00 0.00 0.00 59 1013.2
20260902153725 88 202 7.0 12.2 0.00 0.00 0.00 58 1013.2
20260902153255 88 181 8.7 12.2 0.00 0.00 0.00 60 1013.2
20260902153011 87 167 8.7 13.0 0.00 0.00 0.00 60 1010.3
20260902152806 87 193 7.8 13.0 0.00 0.00 0.00 63 1013.2
20260902152224 87 202 7.8 10.4 0.00 0.00 0.00 62 1013.2
20260902151736 86 148 7.0 12.2 0.00 0.00 0.00 64 1013.3
20260902151539 85 173 7.8 13.0 0.00 0.00 0.00 63 1010.4
20260902151308 85 167 7.8 13.0 0.00 0.00 0.00 62 1013.3
20260902150728 85 163 8.7 13.0 0.00 0.00 0.00 62 1013.1
20260902150240 84 164 8.7 12.2 0.00 0.00 0.00 62 1013.2
20260902150056 83 180 7.8 12.2 0.00 0.00 0.00 62 1010.4
20260902145724 83 169 7.8 11.3 0.00 0.00 0.00 63 1013.3
20260902145236 82 161 6.1 8.7 0.00 0.00 0.00 66 1013.1
20260902144743 81 174 7.0 8.7 0.00 0.00 0.00 70 1013.2
20260902144555 80 176 5.2 8.7 0.00 0.00 0.00 70 1010.3
20260902144235 80 174 7.0 9.6 0.00 0.00 0.00 72 1013.2
20260902143745 79 167 5.2 8.7 0.00 0.00 0.00 70 1013.0
20260902143228 79 147 5.2 8.7 0.00 0.00 0.00 71 1013.2
20260902143040 79 142 5.2 8.7 0.00 0.00 0.00 71 1010.3
20260902142739 79 175 4.3 7.8 0.00 0.00 0.00 70 1013.2
20260902142311 79 183 6.1 9.6 0.00 0.00 0.00 69 1013.2
20260902141731 80 172 7.0 10.4 0.00 0.00 0.00 69 1013.2
20260902141526 79 171 7.0 10.4 0.00 0.00 0.00 69 1010.3
20260902141241 80 145 8.7 10.4 0.00 0.00 0.00 69 1013.2
20260902140723 80 172 4.3 7.8 0.00 0.00 0.00 68 1013.5
20260902140235 81 167 4.3 9.6 0.00 0.00 0.00 67 1013.5
20260902140028 80 202 4.3 9.6 0.00 0.00 0.00 67 1010.7
20260902135808 81 165 6.1 10.4 0.00 0.00 0.00 66 1013.3
20260902135229 81 180 6.1 8.7 0.00 0.00 0.00 65 1013.4
20260902134800 82 176 6.1 7.8 0.00 0.00 0.00 64 1013.5
20260902134540 81 180 4.3 6.1 0.00 0.00 0.00 64 1010.7
20260902134224 82 151 5.2 7.0 0.00 0.00 0.00 64 1013.4
20260902133729 81 177 4.3 6.1 0.00 0.00 0.00 66 1013.5
20260902133302 81 146 2.6 4.3 0.00 0.00 0.00 69 1013.7
20260902133024 80 146 1.7 4.3 0.00 0.00 0.00 70 1010.9
20260902132723 80 146 2.6 3.5 0.00 0.00 0.00 70 1013.7
20260902132233 79 146 1.7 3.5 0.00 0.00 0.00 71 1013.8
20260902131745 78 146 1.7 3.5 0.00 0.00 0.00 71 1013.9
20260902131521 77 146 0.9 3.5 0.00 0.00 0.00 72 1011.1
20260902131228 77 146 1.7 3.5 0.00 0.00 0.00 72 1013.9
20260902130757 77 146 0.9 7.8 0.00 0.00 0.00 73 1013.9
20260902130303 76 146 2.6 7.8 0.00 0.00 0.00 74 1013.5
20260902130035 76 144 5.2 7.8 0.00 0.00 0.00 73 1010.6
20260902125724 76 136 2.6 4.3 0.00 0.00 0.00 73 1013.5
20260902125236 75 125 2.6 5.2 0.00 0.00 0.00 73 1013.7
20260902124749 75 98 2.6 5.2 0.00 0.00 0.00 74 1013.6
20260902124508 75 101 0.9 3.5 0.00 0.00 0.00 74 1010.9
20260902124233 75 101 1.7 3.5 0.00 0.00 0.00 74 1013.7
20260902123802 75 61 2.6 2.6 0.00 0.00 0.00 74 1013.7
20260902123222 75 60 1.7 4.3 0.00 0.00 0.00 74 1013.5
20260902123040 74 60 0.9 4.3 0.00 0.00 0.00 74 1010.7
20260902122733 75 61 2.6 4.3 0.00 0.00 0.00 74 1013.4
20260902122244 75 146 1.7 3.5 0.00 0.00 0.00 73 1013.4